Location: Georgenberg
(48.1500°N, 16.2500°E)
Time: 02:44:54
(UTC+01:00)

N. Korean satellite - Pass Details

Date: 07 December 2022
Orbit: 408 x 444 km, 97.3° (Epoch: 28 January)

Event Time Altitude Azimuth Distance (km) Brightness Sun altitude
Rises 05:33:34 0° 9° (N) 2,513 10.2 -18.7°
Reaches altitude 10° 05:35:39 10° 7° (N) 1,626 9.1 -18.4°
Maximum altitude 05:39:05 62° 286° (WNW) 521 6.3 -17.8°
Drops below altitude 10° 05:42:28 10° 205° (SSW) 1,584 9.1 -17.3°
Sets 05:44:28 0° 202° (SSW) 2,441 10.1 -16.9°
